Location: Cisewo
(53.3833°N, 14.9000°E)
Time: 13:58:04
(UTC+00:00)

IRIDIUM 106 - Pass Details

Date: 18 April 2021
Orbit: 776 x 779 km, 86.4° (Epoch: 16 May)

Event Time Altitude Azimuth Distance (km) Brightness Sun altitude
Exits shadow 19:36:06 - 174° (S) 2,635 6.7 -12.4°
Reaches altitude 10° 19:36:53 10° 173° (S) 2,328 6.4 -12.5°
Maximum altitude 19:42:04 71° 91° (E) 829 4.3 -13.1°
Drops below altitude 10° 19:47:17 10° 8° (N) 2,344 7.3 -13.7°
Sets 19:49:39 0° 7° (N) 3,276 8.1 -13.9°
